Regional Weather Roundup
Issued by NWS

Home | Current Version | Previous Version | Graphics & Text | Print | Product List | Glossary On
Versions: 1 2 3 4 5 6 7 8 9 10 11 12 13 14 15 16 17 18 19 20 21 22 23 24 25 26 27 28 29 30 31 32 33 34 35 36 37 38 39 40 41 42 43 44 45 46 47 48 49 50
000
ASUS43 KIND 281209
RWRIN

WEATHER ROUNDUP FOR INDIANA
NATIONAL WEATHER SERVICE INDIANAPOLIS IN
800 AM EDT SAT MAR 28 2015

NOTE: "FAIR" INDICATES FEW OR NO CLOUDS BELOW 12,000 FEET WITH NO
SIGNIFICANT WEATHER AND/OR OBSTRUCTIONS TO VISIBILITY.

* - STATION DOES NOT REPORT WEATHER SUCH AS PRECIPITATION OR FOG.

+ - STATION NOT QUALITY CONTROLLED BY THE NATIONAL WEATHER SERVICE.
    USE DATA WITH CAUTION...ESPECIALLY DEWPOINT AND RELATIVE
    HUMIDITY OBSERVATIONS.

INZ001>003-010>013-019-020-281300-
NORTHWEST INDIANA

CITY           SKY/WX    TMP DP  RH WIND       PRES   REMARKS
GARY /AIRPORT/ CLEAR     25   7  46 NE7       30.28R WCI  17
KNOX *+          N/A     14   0  52 N3        30.27R
LA PORTE +     CLEAR     15   7  70 N3        30.28R
6HR MIN TEMP:  14; 6HR MAX TEMP:  22;

MICHIGAN CITY+ FAIR      14   9  79 CALM      30.29R
MONTICELLO +   CLEAR     18  11  74 N6        30.26R WCI   9
6HR MIN TEMP:  15; 6HR MAX TEMP:  18;

RENSSELAER +   CLEAR     19  16  86 NE6       30.27R WCI  11
VALPARAISO     CLEAR     14   6  70 NE3       30.27R
6HR MIN TEMP:  13; 6HR MAX TEMP:  21;


$$

LMZ046-743>745-281300-
SOUTHERN LAKE MICHIGAN

STATION/POSITION TIME  TEMP WIND        PRES
                       AIR  DIR/SP/G
                 (UTC) (F)  (DEG/KT/KT) (MB)
BURNS HARBOR     1200   20  110/  6/  7 1025.7S
MICHIGAN CITY    1200   18   60/  6/  7   N/A

$$

INZ004-005-014>016-021>024-281300-
NORTH CENTRAL INDIANA

CITY           SKY/WX    TMP DP  RH WIND       PRES   REMARKS
ELKHART        CLEAR     16   3  57 CALM      30.27
GOSHEN         CLEAR     14   8  77 NE3       30.25R
6HR MIN TEMP:  13; 6HR MAX TEMP:  19;

LOGANSPORT +   CLEAR     18  14  86 N6        30.27R WCI   9
PERU/GRISSOM   CLEAR     17  11  77 N5        30.23R WCI  10
6HR MIN TEMP:  17; 6HR MAX TEMP:  19;

ROCHESTER +    CLEAR     19  14  79 CALM      30.26R
SOUTH BEND     CLEAR     13   6  74 N5        30.27R WCI   5
6HR MIN TEMP:  12; 6HR MAX TEMP:  17;

WARSAW +       CLEAR     14  10  85 CALM      30.25R

$$

INZ006>009-017-018-025>027-281300-
NORTHEAST INDIANA

CITY           SKY/WX    TMP DP  RH WIND       PRES   REMARKS
ANGOLA *+      CLEAR     16   9  73 CALM      30.24R
AUBURN +       CLEAR     18  10  73 CALM      30.25R
FORT WAYNE     CLEAR     17   9  70 NE5       30.26R WCI  10
6HR MIN TEMP:  16; 6HR MAX TEMP:  20;

HUNTINGTON +   CLEAR     17   8  69 E3        30.25R
6HR MIN TEMP:  16; 6HR MAX TEMP:  19;


$$

INZ028-029-035-036-043>045-051>053-281300-
WEST CENTRAL INDIANA

CITY           SKY/WX    TMP DP  RH WIND       PRES   REMARKS
CRAWFORDSVL +  CLEAR     16   9  72 MISG      30.25R
6HR MIN TEMP:  15; 6HR MAX TEMP:  19;

GREENCASTLE +  CLEAR     19  12  73 CALM      30.24R
LAFAYETTE      CLEAR     17  11  77 NE6       30.27R WCI   9
6HR MIN TEMP:  15; 6HR MAX TEMP:  19;

TERRE HAUTE    CLEAR     20  14  77 N5        30.27R WCI  13
6HR MIN TEMP:  20; 6HR MAX TEMP:  24;


$$

INZ030>032-037>040-046>048-054>057-064-065-281300-
CENTRAL INDIANA

CITY           SKY/WX    TMP DP  RH WIND       PRES   REMARKS
CP ATTERBURY + CLEAR     19  14  79 N5        30.25R WCI  13
FISHERS *+     CLEAR     16  16 100 CALM      30.24
FRANKFORT +    CLEAR     19  15  86 N7        30.25R WCI   9
6HR MIN TEMP:  17; 6HR MAX TEMP:  21;

GREENWOOD *+   CLEAR     19  12  73 N5        30.24R WCI  13
INDIANAPOLIS   PTCLDY    18  12  77 N7        30.22R WCI   9
6HR MIN TEMP:  17; 6HR MAX TEMP:  21;

-EAGLE CREEK   CLEAR     19  13  77 N7        30.23R WCI  10
6HR MIN TEMP:  19; 6HR MAX TEMP:  21;

KOKOMO *+        N/A     18  12  79 N8        30.25R WCI   7
6HR MIN TEMP:  18; 6HR MAX TEMP:  19;

MARION +       CLEAR     17  12  80 NE5       30.25R WCI  10
MT COMFORT *+  CLEAR     19  10  68 N6        30.23R WCI  11
SHELBYVILLE    CLEAR     20  14  77 N5        30.22R WCI  13
6HR MIN TEMP:  19; 6HR MAX TEMP:  23;

ZIONSVILLE +   CLEAR     19  14  82 N5        30.23R WCI  12
6HR MIN TEMP:  18; 6HR MAX TEMP:  21;


$$

INZ033-034-041-042-049-050-058-059-281300-
EAST CENTRAL INDIANA

CITY           SKY/WX    TMP DP  RH WIND       PRES   REMARKS
MUNCIE         CLEAR     18  13  80 N6        30.22R WCI  10
6HR MIN TEMP:  18; 6HR MAX TEMP:  21;


$$

INZ060-061-067>069-081>083-085>088-281300-
SOUTHWEST INDIANA

CITY           SKY/WX    TMP DP  RH WIND       PRES   REMARKS
EVANSVILLE     CLEAR     25  17  72 N3        30.26R
6HR MIN TEMP:  25; 6HR MAX TEMP:  30;

HUNTINGBURG *+ CLEAR     21  12  68 NE8       30.25R WCI  12
6HR MIN TEMP:  21; 6HR MAX TEMP:  27;

WASHINGTON +   CLEAR     22  12  66 NE8       30.26R WCI  12
6HR MIN TEMP:  22; 6HR MAX TEMP:  26;


$$

INZ062-063-066-070>080-084-089>092-281300-
SOUTH CENTRAL AND SOUTHEAST INDIANA

CITY           SKY/WX    TMP DP  RH WIND       PRES   REMARKS
BEDFORD +      CLEAR     19  14  79 N3        30.23R
BLOOMINGTON    CLEAR     18  13  80 N6        30.23R WCI  10
6HR MIN TEMP:  17; 6HR MAX TEMP:  23;

NORTH VERNON + CLEAR     21  16  79 N5        30.23R WCI  15
SEYMOUR +      CLEAR     21  16  79 N5        30.25R WCI  15

$$




USA.gov is the U.S. government's official web portal to all federal, state and local government web resources and services.